,,,PA_Meas_PMT16A,,PR_Meas_QMR101_102,,RH_Meas_QMH101,,SR_Meas_QMS101,,TA_Meas_QMH101,,GenWind,,GenWind,
date,time,status,PA,status,PR,status,RH,status,SR,status,TA,status,DirAvg,status,SpdAvg,
2011-08-06, 00:00:04,VALID,999.253,VALID,0,VALID,59.923,VALID,0,VALID,27.0591,VALID,175,VALID,2.46172,
2011-08-06, 00:01:04,VALID,999.211,VALID,0,VALID,60.0527,VALID,0,VALID,27.0201,VALID,167,VALID,2.68672,
2011-08-06, 00:02:04,VALID,999.197,VALID,0,VALID,60.2053,VALID,0,VALID,26.9399,VALID,178,VALID,3.4582,
2011-08-06, 00:03:04,VALID,999.165,VALID,0,VALID,60.0146,VALID,0,VALID,26.9399,VALID,177,VALID,4.02891,
2011-08-06, 00:04:04,VALID,999.158,VALID,0,VALID,60.1824,VALID,0,VALID,27.0005,VALID,179,VALID,2.73711,
2011-08-06, 00:05:04,VALID,999.177,VALID,0,VALID,60.274,VALID,0,VALID,26.9615,VALID,178,VALID,3.24258,
2011-08-06, 00:06:04,VALID,999.147,VALID,0,VALID,60.3121,VALID,0,VALID,26.9419,VALID,172,VALID,3.0082,
2011-08-06, 00:07:04,VALID,999.138,VALID,0,VALID,60.3732,VALID,0,VALID,26.9008,VALID,176,VALID,3.48984,
2011-08-06, 00:08:04,VALID,999.095,VALID,0,VALID,60.3427,VALID,0,VALID,26.9008,VALID,176,VALID,3.42812,
2011-08-06, 00:09:04,VALID,999.1,VALID,0,VALID,60.4037,VALID,0,VALID,26.8813,VALID,174,VALID,3.29375,
2011-08-06, 00:10:04,VALID,999.108,VALID,0,VALID,60.5029,VALID,0,VALID,26.8833,VALID,175,VALID,3.40859,
2011-08-06, 00:11:04,VALID,999.091,VALID,0,VALID,60.4953,VALID,0,VALID,26.8833,VALID,173,VALID,4.61797,
2011-08-06, 00:12:04,VALID,999.067,VALID,0,VALID,60.4647,VALID,0,VALID,26.8833,VALID,174,VALID,4.36484,
2011-08-06, 00:13:04,VALID,999.047,VALID,0,VALID,60.5639,VALID,0,VALID,26.8833,VALID,169,VALID,3.83008,
2011-08-06, 00:14:04,VALID,998.993,VALID,0,VALID,60.9225,VALID,0,VALID,26.8247,VALID,171,VALID,3.20898,
2011-08-06, 00:15:04,VALID,998.988,VALID,0,VALID,60.9378,VALID,0,VALID,26.7857,VALID,174,VALID,3.99062,
2011-08-06, 00:16:04,VALID,998.963,VALID,0,VALID,61.0675,VALID,0,VALID,26.8052,VALID,166,VALID,3.54805,
2011-08-06, 00:17:04,VALID,998.974,VALID,0,VALID,61.3803,VALID,0,VALID,26.7251,VALID,164,VALID,3.15352,
2011-08-06, 00:18:04,VALID,998.906,VALID,0,VALID,60.8462,VALID,0,VALID,26.7251,VALID,173,VALID,4.52109,
2011-08-06, 00:19:04,VALID,998.926,VALID,0,VALID,60.5258,VALID,0,VALID,26.8638,VALID,179,VALID,3.96328,
2011-08-06, 00:20:04,VALID,998.947,VALID,0,VALID,60.4418,VALID,0,VALID,26.9224,VALID,180,VALID,3.88789,
2011-08-06, 00:21:04,VALID,998.936,VALID,0,VALID,60.0222,VALID,0,VALID,26.9399,VALID,174,VALID,4.57109,
2011-08-06, 00:22:04,VALID,998.942,VALID,0,VALID,59.8239,VALID,0,VALID,26.981,VALID,176,VALID,4.05625,
2011-08-06, 00:23:04,VALID,999.032,VALID,0,VALID,60.0756,VALID,0,VALID,26.9615,VALID,175,VALID,4.06289,
2011-08-06, 00:24:04,VALID,998.993,VALID,0,VALID,60.5334,VALID,0,VALID,26.9224,VALID,171,VALID,3.40273,
2011-08-06, 00:25:04,VALID,998.979,VALID,0,VALID,60.3579,VALID,0,VALID,26.9224,VALID,176,VALID,3.62812,
2011-08-06, 00:26:04,VALID,998.97,VALID,0,VALID,60.4495,VALID,0,VALID,26.9204,VALID,174,VALID,3.96758,
2011-08-06, 00:27:04,VALID,998.992,VALID,0,VALID,60.274,VALID,0,VALID,26.981,VALID,185,VALID,4.24609,
2011-08-06, 00:28:04,VALID,998.962,VALID,0,VALID,60.3198,VALID,0,VALID,26.9594,VALID,179,VALID,3.73867,
2011-08-06, 00:29:04,VALID,998.974,VALID,0,VALID,60.2359,VALID,0,VALID,27.0005,VALID,175,VALID,3.85078,
2011-08-06, 00:30:04,VALID,998.962,VALID,0,VALID,60.3579,VALID,0,VALID,27.0201,VALID,178,VALID,6.13555,
2011-08-06, 00:31:04,VALID,998.97,VALID,0,VALID,60.3198,VALID,0,VALID,27.0201,VALID,171,VALID,3.84023,
2011-08-06, 00:32:04,VALID,998.982,VALID,0,VALID,60.4876,VALID,0,VALID,26.9789,VALID,169,VALID,4.21797,
2011-08-06, 00:33:04,VALID,998.956,VALID,0,VALID,60.7165,VALID,0,VALID,26.9419,VALID,172,VALID,3.23477,
2011-08-06, 00:34:04,VALID,998.966,VALID,0,VALID,60.9073,VALID,0,VALID,26.9204,VALID,154,VALID,4.28633,
2011-08-06, 00:35:04,VALID,998.939,VALID,0,VALID,60.8539,VALID,0,VALID,26.9615,VALID,166,VALID,3.58281,
2011-08-06, 00:36:04,VALID,998.981,VALID,0,VALID,60.7852,VALID,0,VALID,26.9594,VALID,170,VALID,4.1457,
2011-08-06, 00:37:04,VALID,998.959,VALID,0,VALID,60.831,VALID,0,VALID,27.0005,VALID,170,VALID,3.5543,
2011-08-06, 00:38:04,VALID,998.891,VALID,0,VALID,61.1361,VALID,0,VALID,26.9789,VALID,163,VALID,4.77148,
2011-08-06, 00:39:04,VALID,998.959,VALID,0,VALID,61.2659,VALID,0,VALID,26.9615,VALID,168,VALID,3.48945,
2011-08-06, 00:40:04,VALID,998.942,VALID,0,VALID,60.9912,VALID,0,VALID,27.0005,VALID,190,VALID,4.07422,
2011-08-06, 00:41:04,VALID,998.951,VALID,0,VALID,61.0064,VALID,0,VALID,26.9985,VALID,175,VALID,3.32773,
2011-08-06, 00:42:04,VALID,998.917,VALID,0,VALID,61.0904,VALID,0,VALID,27.018,VALID,175,VALID,3.29883,
2011-08-06, 00:43:04,VALID,998.889,VALID,0,VALID,61.1285,VALID,0,VALID,27.0396,VALID,167,VALID,3.1707,
2011-08-06, 00:44:04,VALID,998.869,VALID,0,VALID,61.3116,VALID,0,VALID,26.9789,VALID,171,VALID,2.25391,
2011-08-06, 00:45:04,VALID,998.903,VALID,0,VALID,61.4795,VALID,0,VALID,26.9399,VALID,168,VALID,2.3168,
2011-08-06, 00:46:04,VALID,998.866,VALID,0,VALID,61.6397,VALID,0,VALID,26.9029,VALID,182,VALID,2.47578,
2011-08-06, 00:47:04,VALID,998.84,VALID,0,VALID,61.9067,VALID,0,VALID,26.8813,VALID,170,VALID,3.52813,
2011-08-06, 00:48:04,VALID,998.848,VALID,0,VALID,61.9144,VALID,0,VALID,26.9029,VALID,180,VALID,3.02891,
2011-08-06, 00:49:04,VALID,998.817,VALID,0,VALID,61.9907,VALID,0,VALID,26.9224,VALID,180,VALID,3.79609,
2011-08-06, 00:50:04,VALID,998.831,VALID,0,VALID,62.1051,VALID,0,VALID,26.9204,VALID,190,VALID,3.14844,
2011-08-06, 00:51:04,VALID,998.804,VALID,0,VALID,62.0975,VALID,0,VALID,26.9594,VALID,195,VALID,3.11094,
2011-08-06, 00:52:04,VALID,998.828,VALID,0,VALID,62.2958,VALID,0,VALID,26.9419,VALID,181,VALID,2.83047,
2011-08-06, 00:53:04,VALID,998.811,VALID,0,VALID,62.3416,VALID,0,VALID,26.9419,VALID,179,VALID,2.82305,
2011-08-06, 00:54:04,VALID,998.796,VALID,0,VALID,62.601,VALID,0,VALID,26.9224,VALID,171,VALID,3.04219,
2011-08-06, 00:55:04,VALID,998.804,VALID,0,VALID,62.7078,VALID,0,VALID,26.8618,VALID,184,VALID,2.89336,
2011-08-06, 00:56:04,VALID,998.808,VALID,0,VALID,62.7765,VALID,0,VALID,26.8618,VALID,182,VALID,2.93086,
2011-08-06, 00:57:04,VALID,998.787,VALID,0,VALID,62.7918,VALID,0,VALID,26.8813,VALID,183,VALID,2.36016,
2011-08-06, 00:58:04,VALID,998.775,VALID,0,VALID,62.9978,VALID,0,VALID,26.8618,VALID,183,VALID,2.86016,
2011-08-06, 00:59:04,VALID,998.755,VALID,0,VALID,62.9215,VALID,0,VALID,26.9029,VALID,172,VALID,3.38789,
2011-08-06, 01:00:04,VALID,998.727,VALID,0,VALID,63.1656,VALID,0,VALID,26.8638,VALID,165,VALID,3.98125,
2011-08-06, 01:01:04,VALID,998.765,VALID,0,VALID,63.3564,VALID,0,VALID,26.8247,VALID,169,VALID,3.9043,
2011-08-06, 01:02:04,VALID,998.741,VALID,0,VALID,63.1198,VALID,0,VALID,26.8618,VALID,174,VALID,4.23047,
2011-08-06, 01:03:04,VALID,998.695,VALID,0,VALID,63.2877,VALID,0,VALID,26.8638,VALID,170,VALID,3.49258,
2011-08-06, 01:04:04,VALID,998.734,VALID,0,VALID,63.4784,VALID,0,VALID,26.8032,VALID,167,VALID,3.06328,
2011-08-06, 01:05:04,VALID,998.718,VALID,0,VALID,63.6158,VALID,0,VALID,26.7641,VALID,175,VALID,2.72852,
2011-08-06, 01:06:04,VALID,998.71,VALID,0,VALID,63.4327,VALID,0,VALID,26.7857,VALID,164,VALID,3.63203,
2011-08-06, 01:07:04,VALID,998.698,VALID,0,VALID,63.5318,VALID,0,VALID,26.7661,VALID,162,VALID,2.99062,
2011-08-06, 01:08:04,VALID,998.708,VALID,0,VALID,63.6005,VALID,0,VALID,26.7661,VALID,173,VALID,3.21406,
2011-08-06, 01:09:04,VALID,998.688,VALID,0,VALID,62.9062,VALID,0,VALID,26.8422,VALID,157,VALID,4.64414,
2011-08-06, 01:10:04,VALID,998.666,VALID,0,VALID,62.8376,VALID,0,VALID,26.9224,VALID,183,VALID,3.77578,
2011-08-06, 01:11:04,VALID,998.71,VALID,0,VALID,62.952,VALID,0,VALID,26.9419,VALID,173,VALID,3.75859,
2011-08-06, 01:12:04,VALID,998.686,VALID,0,VALID,62.6621,VALID,0,VALID,26.981,VALID,179,VALID,4.13672,
2011-08-06, 01:13:04,VALID,998.67,VALID,0,VALID,62.9749,VALID,0,VALID,26.9399,VALID,173,VALID,3.13711,
2011-08-06, 01:14:04,VALID,998.634,VALID,0,VALID,63.0436,VALID,0,VALID,26.9419,VALID,167,VALID,2.83203,
2011-08-06, 01:15:04,VALID,998.633,VALID,0,VALID,63.0588,VALID,0,VALID,26.8618,VALID,178,VALID,3.61367,
2011-08-06, 01:16:04,VALID,998.633,VALID,0,VALID,62.8223,VALID,0,VALID,26.9224,VALID,179,VALID,4.11406,
2011-08-06, 01:17:04,VALID,998.633,VALID,0,VALID,62.9291,VALID,0,VALID,26.9008,VALID,181,VALID,3.17188,
2011-08-06, 01:18:04,VALID,998.578,VALID,0,VALID,62.9901,VALID,0,VALID,26.9008,VALID,189,VALID,2.91172,
2011-08-06, 01:19:04,VALID,998.648,VALID,0,VALID,62.7078,VALID,0,VALID,26.9399,VALID,170,VALID,4.28281,
2011-08-06, 01:20:04,VALID,998.579,VALID,0,VALID,62.5934,VALID,0,VALID,26.9399,VALID,171,VALID,3.84453,
2011-08-06, 01:21:04,VALID,998.559,VALID,0,VALID,62.8833,VALID,0,VALID,26.9204,VALID,168,VALID,4.11328,
2011-08-06, 01:22:04,VALID,998.592,VALID,0,VALID,62.8986,VALID,0,VALID,26.9008,VALID,175,VALID,3.88203,
2011-08-06, 01:23:04,VALID,998.571,VALID,0,VALID,62.6315,VALID,0,VALID,26.9399,VALID,191,VALID,3.31328,
2011-08-06, 01:24:04,VALID,998.627,VALID,0,VALID,62.5324,VALID,0,VALID,26.9789,VALID,180,VALID,3.60664,
2011-08-06, 01:25:04,VALID,998.618,VALID,0,VALID,62.4408,VALID,0,VALID,27.0005,VALID,179,VALID,2.98906,
2011-08-06, 01:26:04,VALID,998.586,VALID,0,VALID,62.334,VALID,0,VALID,26.9985,VALID,163,VALID,4.17383,
2011-08-06, 01:27:04,VALID,998.592,VALID,0,VALID,62.5705,VALID,0,VALID,26.9789,VALID,180,VALID,3.09141,
2011-08-06, 01:28:04,VALID,998.595,VALID,0,VALID,62.5858,VALID,0,VALID,26.9789,VALID,183,VALID,2.83359,
2011-08-06, 01:29:04,VALID,998.55,VALID,0,VALID,62.6392,VALID,0,VALID,26.9594,VALID,179,VALID,2.10117,
2011-08-06, 01:30:04,VALID,998.542,VALID,0,VALID,62.7918,VALID,0,VALID,26.9204,VALID,213,VALID,1.93867,
2011-08-06, 01:31:04,VALID,998.559,VALID,0,VALID,62.7689,VALID,0,VALID,26.8813,VALID,177,VALID,2.05859,
2011-08-06, 01:32:04,VALID,998.531,VALID,0,VALID,62.7536,VALID,0,VALID,26.8638,VALID,182,VALID,2.49219,
2011-08-06, 01:33:04,VALID,998.545,VALID,0,VALID,62.7841,VALID,0,VALID,26.8618,VALID,181,VALID,2.95078,
2011-08-06, 01:34:04,VALID,998.57,VALID,0,VALID,62.8528,VALID,0,VALID,26.8833,VALID,172,VALID,2.34063,
2011-08-06, 01:35:04,VALID,998.58,VALID,0,VALID,62.9749,VALID,0,VALID,26.8443,VALID,179,VALID,2.3957,
2011-08-06, 01:36:04,VALID,998.57,VALID,0,VALID,62.9825,VALID,0,VALID,26.8422,VALID,184,VALID,2.3543,
2011-08-06, 01:37:04,VALID,998.556,VALID,0,VALID,63.1046,VALID,0,VALID,26.8247,VALID,174,VALID,2.44258,
2011-08-06, 01:38:04,VALID,998.56,VALID,0,VALID,63.1809,VALID,0,VALID,26.7857,VALID,165,VALID,2.49102,
2011-08-06, 01:39:04,VALID,998.503,VALID,0,VALID,63.097,VALID,0,VALID,26.7641,VALID,211,VALID,1.99727,
2011-08-06, 01:40:04,VALID,998.495,VALID,0,VALID,63.2495,VALID,0,VALID,26.7661,VALID,178,VALID,2.33945,
2011-08-06, 01:41:04,VALID,998.524,VALID,0,VALID,63.1885,VALID,0,VALID,26.7446,VALID,181,VALID,2.91992,
2011-08-06, 01:42:04,VALID,998.536,VALID,0,VALID,63.097,VALID,0,VALID,26.7857,VALID,195,VALID,1.82813,
2011-08-06, 01:43:04,VALID,998.525,VALID,0,VALID,63.1504,VALID,0,VALID,26.7857,VALID,206,VALID,1.01563,
2011-08-06, 01:44:04,VALID,998.539,VALID,0,VALID,63.3335,VALID,0,VALID,26.7661,VALID,204,VALID,1.05625,
2011-08-06, 01:45:04,VALID,998.505,VALID,0,VALID,63.3106,VALID,0,VALID,26.7466,VALID,170,VALID,2.23359,
2011-08-06, 01:46:04,VALID,998.509,VALID,0,VALID,63.1961,VALID,0,VALID,26.7446,VALID,193,VALID,2.08437,
2011-08-06, 01:47:04,VALID,998.483,VALID,0,VALID,63.2648,VALID,0,VALID,26.7466,VALID,171,VALID,1.9332,
2011-08-06, 01:48:04,VALID,998.448,VALID,0,VALID,63.219,VALID,0,VALID,26.7446,VALID,183,VALID,2.32148,
2011-08-06, 01:49:04,VALID,998.486,VALID,0,VALID,63.1961,VALID,0,VALID,26.7857,VALID,175,VALID,2.48672,
2011-08-06, 01:50:04,VALID,998.507,VALID,0,VALID,63.2953,VALID,0,VALID,26.7641,VALID,177,VALID,1.93164,
2011-08-06, 01:51:04,VALID,998.509,VALID,0,VALID,63.2801,VALID,0,VALID,26.7857,VALID,232,VALID,1.89922,
2011-08-06, 01:52:04,VALID,998.474,VALID,0,VALID,63.2114,VALID,0,VALID,26.8052,VALID,204,VALID,2.1207,
2011-08-06, 01:53:04,VALID,998.484,VALID,0,VALID,63.1275,VALID,0,VALID,26.8247,VALID,191,VALID,2.1875,
2011-08-06, 01:54:04,VALID,998.494,VALID,0,VALID,63.2419,VALID,0,VALID,26.8247,VALID,196,VALID,0.621875,
2011-08-06, 01:55:04,VALID,998.494,VALID,0,VALID,63.2038,VALID,0,VALID,26.8052,VALID,193,VALID,2.52773,
2011-08-06, 01:56:04,VALID,998.509,VALID,0,VALID,63.1504,VALID,0,VALID,26.8443,VALID,187,VALID,1.625,
2011-08-06, 01:57:04,VALID,998.509,VALID,0,VALID,63.1885,VALID,0,VALID,26.8443,VALID,174,VALID,1.95352,
2011-08-06, 01:58:04,VALID,998.475,VALID,0,VALID,63.2038,VALID,0,VALID,26.8247,VALID,201,VALID,1.70195,
2011-08-06, 01:59:04,VALID,998.453,VALID,0,VALID,63.4708,VALID,0,VALID,26.7857,VALID,198,VALID,1.26797,
2011-08-06, 02:00:04,VALID,998.414,VALID,0,VALID,63.4708,VALID,0,VALID,26.7857,VALID,184,VALID,2.33633,
2011-08-06, 02:01:04,VALID,998.424,VALID,0,VALID,63.5318,VALID,0,VALID,26.7857,VALID,197,VALID,1.58008,
2011-08-06, 02:02:04,VALID,998.422,VALID,0,VALID,63.425,VALID,0,VALID,26.7857,VALID,207,VALID,1.67188,
2011-08-06, 02:03:04,VALID,998.414,VALID,0,VALID,63.4937,VALID,0,VALID,26.7857,VALID,205,VALID,1.92305,
2011-08-06, 02:04:04,VALID,998.409,VALID,0,VALID,63.6844,VALID,0,VALID,26.7661,VALID,188,VALID,2.39375,
2011-08-06, 02:05:04,VALID,998.411,VALID,0,VALID,63.5776,VALID,0,VALID,26.7661,VALID,201,VALID,1.93398,
2011-08-06, 02:06:04,VALID,998.415,VALID,0,VALID,63.9133,VALID,0,VALID,26.7466,VALID,191,VALID,1.14883,
2011-08-06, 02:07:04,VALID,998.419,VALID,0,VALID,63.982,VALID,0,VALID,26.7076,VALID,198,VALID,1.4,
2011-08-06, 02:08:04,VALID,998.4,VALID,0,VALID,64.0964,VALID,0,VALID,26.6685,VALID,198,VALID,1.78203,
2011-08-06, 02:09:04,VALID,998.407,VALID,0,VALID,64.0735,VALID,0,VALID,26.688,VALID,184,VALID,2.30234,
2011-08-06, 02:10:04,VALID,998.397,VALID,0,VALID,64.0125,VALID,0,VALID,26.7076,VALID,200,VALID,2.22461,
2011-08-06, 02:11:04,VALID,998.355,VALID,0,VALID,64.1193,VALID,0,VALID,26.7076,VALID,198,VALID,1.97812,
2011-08-06, 02:12:04,VALID,998.392,VALID,0,VALID,64.1575,VALID,0,VALID,26.7076,VALID,211,VALID,1.8125,
2011-08-06, 02:13:04,VALID,998.392,VALID,0,VALID,64.127,VALID,0,VALID,26.7271,VALID,190,VALID,3.13281,
2011-08-06, 02:14:04,VALID,998.379,VALID,0,VALID,64.0049,VALID,0,VALID,26.7271,VALID,185,VALID,2.9918,
2011-08-06, 02:15:04,VALID,998.37,VALID,0,VALID,64.043,VALID,0,VALID,26.7271,VALID,188,VALID,3.49922,
2011-08-06, 02:16:04,VALID,998.404,VALID,0,VALID,63.982,VALID,0,VALID,26.7661,VALID,205,VALID,2.70586,
2011-08-06, 02:17:04,VALID,998.397,VALID,0,VALID,64.0583,VALID,0,VALID,26.7466,VALID,207,VALID,2.03594,
2011-08-06, 02:18:04,VALID,998.398,VALID,0,VALID,64.3024,VALID,0,VALID,26.7271,VALID,198,VALID,2.2043,
2011-08-06, 02:19:04,VALID,998.4,VALID,0,VALID,64.3787,VALID,0,VALID,26.649,VALID,199,VALID,1.77734,
2011-08-06, 02:20:04,VALID,998.401,VALID,0,VALID,64.5313,VALID,0,VALID,26.649,VALID,206,VALID,1.1625,
2011-08-06, 02:21:04,VALID,998.404,VALID,0,VALID,64.5313,VALID,0,VALID,26.6294,VALID,202,VALID,1.325,
2011-08-06, 02:22:04,VALID,998.411,VALID,0,VALID,64.7068,VALID,0,VALID,26.6099,VALID,204,VALID,0.8875,
2011-08-06, 02:23:04,VALID,998.433,VALID,0,VALID,64.8975,VALID,0,VALID,26.5298,VALID,189,VALID,1.61016,
2011-08-06, 02:24:04,VALID,998.406,VALID,0,VALID,64.8441,VALID,0,VALID,26.5298,VALID,205,VALID,1.96836,
2011-08-06, 02:25:04,VALID,998.457,VALID,0,VALID,64.7144,VALID,0,VALID,26.5708,VALID,176,VALID,2.80234,
2011-08-06, 02:26:04,VALID,998.407,VALID,0,VALID,64.5237,VALID,0,VALID,26.649,VALID,186,VALID,2.75664,
2011-08-06, 02:27:04,VALID,998.431,VALID,0,VALID,64.661,VALID,0,VALID,26.6685,VALID,192,VALID,2.37969,
2011-08-06, 02:28:04,VALID,998.423,VALID,0,VALID,64.4398,VALID,0,VALID,26.649,VALID,185,VALID,2.58008,
2011-08-06, 02:29:04,VALID,998.432,VALID,0,VALID,64.5924,VALID,0,VALID,26.6274,VALID,185,VALID,1.63711,
2011-08-06, 02:30:04,VALID,998.429,VALID,0,VALID,64.7068,VALID,0,VALID,26.6294,VALID,195,VALID,2.3082,
2011-08-06, 02:31:04,VALID,998.473,VALID,0,VALID,64.7831,VALID,0,VALID,26.6099,VALID,211,VALID,2.19531,
2011-08-06, 02:32:04,VALID,998.455,VALID,0,VALID,64.8899,VALID,0,VALID,26.5904,VALID,185,VALID,1.74297,
2011-08-06, 02:33:04,VALID,998.454,VALID,0,VALID,64.7907,VALID,0,VALID,26.6099,VALID,185,VALID,2.54727,
2011-08-06, 02:34:04,VALID,998.443,VALID,0,VALID,64.7068,VALID,0,VALID,26.649,VALID,207,VALID,1.82109,
2011-08-06, 02:35:04,VALID,998.416,VALID,0,VALID,64.7755,VALID,0,VALID,26.649,VALID,180,VALID,2.32227,
2011-08-06, 02:36:04,VALID,998.394,VALID,0,VALID,64.9357,VALID,0,VALID,26.6294,VALID,158,VALID,1.65547,
2011-08-06, 02:37:04,VALID,998.423,VALID,0,VALID,64.7755,VALID,0,VALID,26.6294,VALID,167,VALID,2.57852,
2011-08-06, 02:38:04,VALID,998.386,VALID,0,VALID,64.8441,VALID,0,VALID,26.649,VALID,177,VALID,3.06641,
2011-08-06, 02:39:04,VALID,998.382,VALID,0,VALID,64.7755,VALID,0,VALID,26.688,VALID,175,VALID,3.48945,
2011-08-06, 02:40:04,VALID,998.372,VALID,0,VALID,64.5847,VALID,0,VALID,26.7076,VALID,208,VALID,1.97187,
2011-08-06, 02:41:04,VALID,998.302,VALID,0,VALID,64.745,VALID,0,VALID,26.7076,VALID,207,VALID,3.23906,
2011-08-06, 02:42:04,VALID,998.337,VALID,0,VALID,64.5924,VALID,0,VALID,26.7055,VALID,170,VALID,3.01133,
2011-08-06, 02:43:04,VALID,998.373,VALID,0,VALID,64.7755,VALID,0,VALID,26.7076,VALID,174,VALID,2.6332,
2011-08-06, 02:44:04,VALID,998.341,VALID,0,VALID,64.9281,VALID,0,VALID,26.649,VALID,177,VALID,2.13984,
2011-08-06, 02:45:04,VALID,998.328,VALID,0,VALID,65.1646,VALID,0,VALID,26.5884,VALID,185,VALID,2.35117,
2011-08-06, 02:46:04,VALID,998.322,VALID,0,VALID,65.1035,VALID,0,VALID,26.6099,VALID,182,VALID,2.26406,
2011-08-06, 02:47:04,VALID,998.267,VALID,0,VALID,65.2027,VALID,0,VALID,26.6099,VALID,180,VALID,1.72383,
2011-08-06, 02:48:04,VALID,998.267,VALID,0,VALID,65.073,VALID,0,VALID,26.6294,VALID,177,VALID,2.70156,
2011-08-06, 02:49:04,VALID,998.244,VALID,0,VALID,64.8747,VALID,0,VALID,26.6685,VALID,181,VALID,2.31523,
2011-08-06, 02:50:04,VALID,998.223,VALID,0,VALID,64.9738,VALID,0,VALID,26.6685,VALID,176,VALID,2.14258,
2011-08-06, 02:51:04,VALID,998.196,VALID,0,VALID,64.6381,VALID,0,VALID,26.649,VALID,178,VALID,2.84648,
2011-08-06, 02:52:04,VALID,998.229,VALID,0,VALID,64.8747,VALID,0,VALID,26.7076,VALID,163,VALID,2.33516,
2011-08-06, 02:53:04,VALID,998.196,VALID,0,VALID,64.9433,VALID,0,VALID,26.649,VALID,173,VALID,2.93242,
2011-08-06, 02:54:04,VALID,998.171,VALID,0,VALID,64.8823,VALID,0,VALID,26.5884,VALID,172,VALID,3.16484,
2011-08-06, 02:55:04,VALID,998.16,VALID,0,VALID,64.6076,VALID,0,VALID,26.6685,VALID,204,VALID,2.13789,
2011-08-06, 02:56:04,VALID,998.179,VALID,0,VALID,64.5084,VALID,0,VALID,26.688,VALID,197,VALID,2.26719,
2011-08-06, 02:57:04,VALID,998.193,VALID,0,VALID,64.7373,VALID,0,VALID,26.6665,VALID,214,VALID,1.61055,
2011-08-06, 02:58:04,VALID,998.18,VALID,0,VALID,64.7831,VALID,0,VALID,26.6469,VALID,194,VALID,1.2582,
2011-08-06, 02:59:04,VALID,998.191,VALID,0,VALID,64.8823,VALID,0,VALID,26.649,VALID,187,VALID,1.31289,
2011-08-06, 03:00:04,VALID,998.189,VALID,0,VALID,65.0349,VALID,0,VALID,26.6099,VALID,194,VALID,1.75195,
2011-08-06, 03:01:04,VALID,998.184,VALID,0,VALID,65.218,VALID,0,VALID,26.5493,VALID,171,VALID,1.17695,
2011-08-06, 03:02:04,VALID,998.214,VALID,0,VALID,65.4164,VALID,0,VALID,26.5102,VALID,188,VALID,1.36289,
2011-08-06, 03:03:04,VALID,998.194,VALID,0,VALID,65.4698,VALID,0,VALID,26.5123,VALID,205,VALID,1.8457,
2011-08-06, 03:04:04,VALID,998.186,VALID,0,VALID,64.9052,VALID,0,VALID,26.5493,VALID,212,VALID,1.74844,
2011-08-06, 03:05:04,VALID,998.185,VALID,0,VALID,64.7373,VALID,0,VALID,26.5884,VALID,199,VALID,2.33672,
2011-08-06, 03:06:04,VALID,998.197,VALID,0,VALID,64.5161,VALID,0,VALID,26.6294,VALID,179,VALID,2.68984,
2011-08-06, 03:07:04,VALID,998.208,VALID,0,VALID,64.4245,VALID,0,VALID,26.6294,VALID,167,VALID,2.3457,
2011-08-06, 03:08:04,VALID,998.209,VALID,0,VALID,64.8213,VALID,0,VALID,26.6099,VALID,171,VALID,2.10469,
2011-08-06, 03:09:04,VALID,998.202,VALID,0,VALID,65.218,VALID,0,VALID,26.4907,VALID,168,VALID,2.3707,
2011-08-06, 03:10:04,VALID,998.257,VALID,0,VALID,65.7673,VALID,0,VALID,26.3951,VALID,167,VALID,1.86055,
2011-08-06, 03:11:04,VALID,998.23,VALID,0,VALID,66.0801,VALID,0,VALID,26.2584,VALID,172,VALID,2.20234,
2011-08-06, 03:12:04,VALID,998.241,VALID,0,VALID,66.4616,VALID,0,VALID,26.1978,VALID,162,VALID,1.86016,
2011-08-06, 03:13:04,VALID,998.242,VALID,0,VALID,66.7134,VALID,0,VALID,26.1002,VALID,177,VALID,1.63516,
2011-08-06, 03:14:04,VALID,998.243,VALID,0,VALID,66.9957,VALID,0,VALID,26.0631,VALID,158,VALID,1.40547,
2011-08-06, 03:15:04,VALID,998.239,VALID,0,VALID,68.1935,VALID,0,VALID,25.985,VALID,117,VALID,1.40586,
2011-08-06, 03:16:04,VALID,998.249,VALID,0,VALID,70.5358,VALID,0,VALID,25.7292,VALID,97,VALID,1.20195,
2011-08-06, 03:17:04,VALID,998.261,VALID,0,VALID,72.6187,VALID,0,VALID,25.3778,VALID,71,VALID,1.05117,
2011-08-06, 03:18:04,VALID,998.258,VALID,0,VALID,73.725,VALID,0,VALID,25.0069,VALID,71,VALID,0.958594,
2011-08-06, 03:19:04,VALID,998.269,VALID,0,VALID,74.8161,VALID,0,VALID,24.7532,VALID,71,VALID,0.433203,
2011-08-06, 03:20:04,VALID,998.221,VALID,0,VALID,75.3196,VALID,0,VALID,24.5599,VALID,122,VALID,0.654297,
2011-08-06, 03:21:04,VALID,998.215,VALID,0,VALID,75.4875,VALID,0,VALID,24.4409,VALID,130,VALID,0.33125,
2011-08-06, 03:22:04,VALID,998.247,VALID,0,VALID,75.9223,VALID,0,VALID,24.3647,VALID,244,VALID,0.830859,
2011-08-06, 03:23:04,VALID,998.248,VALID,0,VALID,74.755,VALID,0,VALID,24.4019,VALID,174,VALID,1.18984,
2011-08-06, 03:24:04,VALID,998.187,VALID,0,VALID,73.5953,VALID,0,VALID,24.6361,VALID,173,VALID,1.11602,
2011-08-06, 03:25:04,VALID,998.169,VALID,0,VALID,71.7261,VALID,0,VALID,24.8703,VALID,170,VALID,2.44062,
2011-08-06, 03:26:04,VALID,998.188,VALID,0,VALID,69.5287,VALID,0,VALID,25.2997,VALID,176,VALID,3.65586,
2011-08-06, 03:27:04,VALID,998.212,VALID,0,VALID,67.7358,VALID,0,VALID,25.6902,VALID,185,VALID,4.22305,
2011-08-06, 03:28:04,VALID,998.234,VALID,0,VALID,66.5074,VALID,0,VALID,26.0026,VALID,193,VALID,3.11562,
2011-08-06, 03:29:04,VALID,998.231,VALID,0,VALID,65.4087,VALID,0,VALID,26.1978,VALID,184,VALID,4.54375,
2011-08-06, 03:30:04,VALID,998.249,VALID,0,VALID,64.9815,VALID,0,VALID,26.354,VALID,166,VALID,3.68945,
2011-08-06, 03:31:04,VALID,998.276,VALID,0,VALID,65.1493,VALID,0,VALID,26.3951,VALID,175,VALID,2.77383,
2011-08-06, 03:32:04,VALID,998.224,VALID,0,VALID,65.3095,VALID,0,VALID,26.356,VALID,179,VALID,2.22656,
2011-08-06, 03:33:04,VALID,998.219,VALID,0,VALID,65.4393,VALID,0,VALID,26.315,VALID,172,VALID,1.70664,
2011-08-06, 03:34:04,VALID,998.23,VALID,0,VALID,65.3324,VALID,0,VALID,26.2974,VALID,182,VALID,1.60312,
2011-08-06, 03:35:04,VALID,998.22,VALID,0,VALID,65.2561,VALID,0,VALID,26.2954,VALID,183,VALID,2.31172,
2011-08-06, 03:36:04,VALID,998.206,VALID,0,VALID,65.0196,VALID,0,VALID,26.354,VALID,164,VALID,3.02266,
2011-08-06, 03:37:04,VALID,998.224,VALID,0,VALID,64.8136,VALID,0,VALID,26.354,VALID,172,VALID,3.29766,
2011-08-06, 03:38:04,VALID,998.231,VALID,0,VALID,64.8518,VALID,0,VALID,26.3736,VALID,184,VALID,2.83477,
2011-08-06, 03:39:04,VALID,998.219,VALID,0,VALID,65.0349,VALID,0,VALID,26.354,VALID,168,VALID,2.44258,
2011-08-06, 03:40:04,VALID,998.213,VALID,0,VALID,64.867,VALID,0,VALID,26.3365,VALID,178,VALID,2.56914,
2011-08-06, 03:41:04,VALID,998.192,VALID,0,VALID,64.8441,VALID,0,VALID,26.2954,VALID,167,VALID,2.55703,
2011-08-06, 03:42:04,VALID,998.184,VALID,0,VALID,65.1112,VALID,0,VALID,26.2954,VALID,169,VALID,2.04805,
2011-08-06, 03:43:04,VALID,998.193,VALID,0,VALID,65.1646,VALID,0,VALID,26.2564,VALID,160,VALID,2.12539,
2011-08-06, 03:44:04,VALID,998.155,VALID,0,VALID,65.6605,VALID,0,VALID,26.1998,VALID,161,VALID,1.75039,
2011-08-06, 03:45:04,VALID,998.164,VALID,0,VALID,65.485,VALID,0,VALID,26.1217,VALID,170,VALID,2.23203,
2011-08-06, 03:46:04,VALID,998.186,VALID,0,VALID,65.8131,VALID,0,VALID,26.0611,VALID,176,VALID,1.87031,